[[{"header":{"parameterUnit":"m.s-1","parameterCategory":1,"la1":30.2991,"la2":30.254,"lo1":-89.0895,"lo2":-89.0444,"dy":0.0017,"dx":0.0017,"nx":28,"ny":28,"refTime":"2024-06-17T09:00:00:Z","depth":0,"parameterNumber":2,"parameterNumberName":"U-component_of_WINDS"},"data":[0,0,0,0,0,0,0,0,0,0,0,0,0,0,0,0,0,0,0,0,0,0,0,0,0,0,0,0,0,0,0,0,0,0,0,0,0,0,0,0,0,0,0,0,0,0,0,0,0,0,0,0,0,0,0,0,0,0,-5.5551,-5.5551,0,-5.5573,-5.5573,-5.5573,-5.5429,-5.5425,-5.5421,-5.5417,-5.544,-5.5444,-5.5448,0,0,0,0,0,0,0,0,0,0,0,0,0,-5.5383,-5.5386,-5.5551,-5.5551,-5.5551,-5.5573,-5.5573,-5.5573,-5.543,-5.5425,-5.542,-5.5415,-5.5438,-5.5443,-5.5449,0,0,0,0,0,0,0,0,0,0,0,0,0,-5.5435,-5.5388,-5.5551,-5.5482,-5.5476,-5.5573,-5.5573,-5.5574,-5.5431,-5.5425,-5.5418,-5.5413,-5.5436,-5.5443,-5.5449,-5.5613,0,0,-5.5469,-5.5472,0,0,0,0,0,0,0,0,-5.5433,-5.5442,-5.5492,-5.5487,-5.5481,-5.5492,-5.5522,-5.5587,-5.5432,-5.5448,-5.5417,-5.541,-5.5462,-5.5466,-5.5484,-5.5614,-5.5615,-5.547,-5.5474,-5.5477,-5.5479,0,0,0,0,0,0,0,-5.5429,-5.544,-5.5559,-5.5493,-5.5486,-5.545,-5.5451,-5.5534,-5.5489,-5.5446,-5.5436,-5.544,-5.5458,-5.5478,-5.5483,-5.5615,-5.547,-5.5476,-5.548,-5.5482,-5.5876,-5.5883,0,0,0,0,0,0,-5.5435,-5.5438,-5.5559,-5.556,-5.5441,-5.5458,-5.5459,-5.5495,-5.5488,-5.5481,-5.5446,-5.5434,-5.5469,-5.5476,-5.5483,-5.5671,-5.5477,-5.5483,-5.5487,-5.587,-5.5878,-5.5885,0,0,0,0,0,0,-5.5432,-5.5447,-5.5558,-5.5496,-5.5508,-5.5467,-5.5509,-5.5498,-5.5518,-5.5487,-5.5478,-5.5474,-5.5465,-5.5474,-5.5581,-5.567,-5.5486,-5.5492,-5.5862,-5.5872,-5.5881,-5.6049,0,0,0,0,0,0,-5.5428,-5.5447,-5.5509,-5.5499,-5.5511,-5.5656,-5.5514,-5.5503,-5.553,-5.5514,-5.5512,-5.5506,-5.5461,-5.5572,-5.5587,-5.5675,-5.5497,-5.5854,-5.5867,-5.5878,-5.6036,-5.6064,-5.6088,0,0,0,0,0,-5.5422,-5.5556,-5.5513,-5.5528,-5.5588,-5.5661,-5.5668,-5.5614,-5.5538,-5.5599,-5.5579,-5.5506,-5.5658,-5.5584,-5.56,-5.5692,-5.5848,-5.5863,-5.5877,-5.6024,-5.6058,-5.6087,0,0,0,0,0,0,-5.5578,-5.5553,-5.5505,-5.564,-5.5654,-5.5637,-5.5712,-5.5653,-5.5688,-5.5672,-5.5603,-5.5604,-5.5722,-5.5718,-5.5635,-5.5848,-5.574,-5.5758,-5.5845,-5.5878,-5.5903,-5.59,-5.5503,0,0,0,0,0,-5.5628,-5.569,-5.5665,-5.5786,-5.5795,-5.5754,-5.5783,-5.574,-5.5752,-5.5757,-5.5744,-5.5758,-5.5809,-5.5844,-5.5889,-5.6036,-5.6031,-5.6106,-5.6132,-5.6154,-5.617,-5.6244,-5.6276,-5.5933,-5.5933,-5.5933,0,0,-5.5732,-5.5726,-5.5769,-5.5817,-5.5823,-5.5887,-5.5759,-5.5833,-5.588,-5.5768,-5.5866,-5.5859,-5.5869,-5.5996,-5.6051,-5.5996,-5.6264,-5.6173,-5.619,-5.6194,-5.6262,-5.6295,-5.6323,-5.5943,-5.5941,-5.594,0,0,-5.5953,-5.5957,-5.6056,-5.6064,-5.6074,-5.6045,-5.6069,-5.6061,-5.6051,-5.6149,-5.6066,-5.6121,-5.621,-5.622,-5.6237,-5.6462,-5.6394,-5.6479,-5.6613,-5.6686,-5.6713,-5.6737,-5.6813,-5.6842,-5.6495,-5.6496,-5.6496,0,-5.608,-5.6174,-5.6115,-5.6193,-5.6216,-5.6118,-5.6217,-5.6228,-5.6253,-5.627,-5.6208,-5.6317,-5.6318,-5.6443,-5.6498,-5.6517,-5.654,-5.6477,-5.6714,-5.6737,-5.6758,-5.683,-5.686,-5.6506,-5.6504,-5.6503,-5.6503,0,-5.6328,-5.6395,-5.6474,-5.6499,-5.6531,-5.662,-5.6573,-5.6612,-5.6567,-5.6544,-5.6645,-5.6642,-5.6683,-5.6711,-5.6668,-5.6831,-5.6796,-5.6726,-5.6615,-5.6802,-5.6868,-5.6896,-5.652,-5.6516,-5.6513,-5.6511,0,0,-5.6646,-5.6637,-5.6667,-5.6675,-5.6679,-5.6729,-5.6813,-5.6853,-5.6887,-5.6908,-5.6975,-5.7053,-5.6987,-5.7006,-5.6964,-5.7029,-5.7202,-5.695,-5.6949,-5.6993,-5.7377,-5.7427,-5.746,-5.7159,-5.7164,-5.7168,-5.7375,0,-5.6859,-5.7001,-5.695,-5.7095,-5.7154,-5.7062,-5.7134,-5.7144,-5.7126,-5.7172,-5.7152,-5.7206,-5.7118,-5.7128,-5.7189,-5.7168,-5.7278,-5.7153,-5.7218,-5.7222,-5.7215,-5.7496,-5.7549,-5.7744,-5.7401,-5.7406,-5.7409,0,-5.7126,-5.7156,-5.7307,-5.7297,-5.732,-5.7387,-5.7418,-5.7465,-5.7474,-5.7455,-5.7477,-5.742,-5.7501,-5.7393,-5.7502,-5.7418,-5.7443,-5.7437,-5.7443,-5.7444,-5.7324,-5.7501,-5.7806,-5.7834,-5.745,-5.7447,-5.7444,0,-5.7338,-5.7416,-5.7515,-5.7527,-5.752,-5.7568,-5.7568,-5.757,-5.7597,-5.7625,-5.7641,-5.7679,-5.7699,-5.773,-5.7684,-5.761,-5.7798,-5.7688,-5.7783,-5.7785,-5.7824,-5.7821,-5.8133,-5.7847,-5.7846,-5.7846,-5.7845,0,-5.7578,-5.7673,-5.761,-5.7671,-5.7774,-5.7714,-5.7818,-5.7807,-5.7811,-5.7867,-5.7791,-5.7845,-5.7783,-5.7832,-5.7797,-5.7891,-5.7902,-5.7888,-5.7876,-5.7892,-5.7893,-5.7904,-5.7888,-5.7853,-5.7852,-5.785,-5.7849,0,-5.7831,-5.7793,-5.7894,-5.7879,-5.7878,-5.7954,-5.7941,-5.7996,-5.7972,-5.8044,-5.8058,-5.8021,-5.8074,-5.8032,-5.8085,-5.8061,-5.8183,-5.8155,-5.818,-5.8171,-5.8267,-5.8257,-5.8594,-5.8633,-5.8325,-5.8328,-5.8331,0,-5.7985,-5.8055,-5.8048,-5.808,-5.8083,-5.8137,-5.8163,-5.8108,-5.8138,-5.8153,-5.8206,-5.8253,-5.8286,-5.8375,-5.8352,-5.8392,-5.8361,-5.8477,-5.8366,-5.8379,-5.8358,-5.8353,-5.8358,-5.8498,-5.8501,-5.8504,-5.8507,0,-5.8261,-5.8238,-5.8279,-5.8314,-5.8347,-5.8372,-5.8391,-5.8421,-5.8364,-5.8403,-5.8455,-5.8482,-5.8535,-5.8581,-5.8612,-5.8611,-5.8549,-5.8542,-5.8565,-5.858,-5.859,-5.8582,-5.8237,-5.8534,-5.8531,-5.8529,-5.8528,-5.8526,-5.8466,-5.8523,-5.8526,-5.8574,-5.8582,-5.8601,-5.865,-5.8633,-5.8676,-5.8713,-5.8679,-5.8742,-5.8747,-5.8783,-5.8789,-5.8837,-5.8789,-5.8824,-5.8832,-5.8841,-5.8853,-5.8586,-5.8843,-5.8842,-5.8842,-5.8841,-5.884,0,-5.8734,-5.8732,-5.8776,-5.8804,-5.8841,-5.8781,-5.8798,-5.8833,-5.8889,-5.8899,-5.8934,-5.8994,-5.9038,-5.9019,-5.9058,-5.91,-5.9072,-5.9111,-5.9106,-5.9106,-5.8895,-5.8869,-5.9133,-5.9133,-5.9133,-5.9133,-5.9132,-5.9132,-5.8878,-5.8971,-5.8949,-5.9044,-5.904,-5.91,-5.9115,-5.9131,-5.9139,-5.9209,-5.9245,-5.9232,-5.9231,-5.9268,-5.9306,-5.9299,-5.9315,-5.9364,-5.9347,-5.915,-5.9121,-5.9093,-5.9068,-5.9369,-5.9369,-5.9552,-5.9554,-5.9555]},{"header":{"parameterUnit":"m.s-1","parameterCategory":1,"la1":30.2991,"la2":30.254,"lo1":-89.0895,"lo2":-89.0444,"dy":0.0017,"dx":0.0017,"nx":28,"ny":28,"refTime":"2024-06-17T09:00:00:Z","depth":0,"parameterNumber":3,"parameterNumberName":"V-component_of_WINDS"},"data":[0,0,0,0,0,0,0,0,0,0,0,0,0,0,0,0,0,0,0,0,0,0,0,0,0,0,0,0,0,0,0,0,0,0,0,0,0,0,0,0,0,0,0,0,0,0,0,0,0,0,0,0,0,0,0,0,0,0,1.1324,1.1323,0,1.1244,1.1243,1.1242,1.1112,1.111,1.1108,1.1105,1.1023,1.1023,1.1023,0,0,0,0,0,0,0,0,0,0,0,0,0,1.1368,1.1368,1.1324,1.1323,1.1322,1.1244,1.1243,1.1242,1.1113,1.111,1.1107,1.1104,1.1023,1.1023,1.1023,0,0,0,0,0,0,0,0,0,0,0,0,0,1.1324,1.1368,1.1325,1.1249,1.1241,1.1244,1.1243,1.1241,1.1113,1.111,1.1106,1.1103,1.1023,1.1023,1.1023,1.1094,0,0,1.1023,1.1023,0,0,0,0,0,0,0,0,1.1327,1.1323,1.1261,1.1254,1.1245,1.1184,1.1228,1.1192,1.1114,1.1162,1.1105,1.1101,1.108,1.1075,1.1067,1.109,1.1087,1.1023,1.1023,1.1023,1.1023,0,0,0,0,0,0,0,1.133,1.1326,1.1292,1.126,1.1251,1.1219,1.1209,1.122,1.1142,1.1157,1.1148,1.114,1.1075,1.1068,1.1065,1.1085,1.1023,1.1023,1.1023,1.1023,1.1163,1.1167,0,0,0,0,0,0,1.1344,1.1329,1.1295,1.129,1.1278,1.1221,1.121,1.1208,1.1141,1.1128,1.1143,1.1134,1.107,1.1065,1.1061,1.114,1.1023,1.1023,1.1023,1.1159,1.1164,1.1168,0,0,0,0,0,0,1.1346,1.1342,1.1298,1.1307,1.1299,1.1224,1.1223,1.1208,1.1201,1.113,1.1116,1.115,1.1067,1.1061,1.1087,1.1135,1.1023,1.1023,1.1155,1.1161,1.1166,1.1299,0,0,0,0,0,0,1.1347,1.1344,1.137,1.1308,1.1299,1.1326,1.1226,1.1209,1.1201,1.1189,1.1133,1.1121,1.1063,1.1088,1.1087,1.1133,1.1023,1.115,1.1158,1.1164,1.129,1.1308,1.1324,0,0,0,0,0,1.1349,1.141,1.1372,1.1368,1.133,1.1329,1.1323,1.1256,1.1205,1.1231,1.1186,1.1122,1.1131,1.1091,1.109,1.1137,1.1147,1.1156,1.1164,1.1282,1.1304,1.1323,0,0,0,0,0,0,1.1479,1.1401,1.1357,1.1399,1.1372,1.1307,1.1337,1.1282,1.1267,1.1257,1.1174,1.1162,1.1199,1.117,1.1128,1.1202,1.1129,1.1137,1.1219,1.124,1.1257,1.1263,1.1023,0,0,0,0,0,1.1512,1.1518,1.1449,1.1493,1.1482,1.1412,1.1409,1.136,1.1328,1.1315,1.1272,1.1243,1.1239,1.1238,1.123,1.1285,1.1271,1.1317,1.1334,1.1348,1.1356,1.1384,1.1403,1.1195,1.1195,1.1195,0,0,1.1581,1.1539,1.1548,1.1518,1.1491,1.1499,1.1403,1.1415,1.142,1.1317,1.1338,1.1306,1.1269,1.131,1.1325,1.1287,1.1411,1.1359,1.1371,1.1371,1.1394,1.1414,1.1431,1.1201,1.12,1.1199,0,0,1.1711,1.168,1.1713,1.1688,1.1648,1.1601,1.161,1.1554,1.1528,1.1549,1.1472,1.1477,1.1472,1.1448,1.1436,1.1559,1.15,1.1559,1.1648,1.1675,1.1692,1.1706,1.175,1.1767,1.1567,1.1567,1.1568,0,1.1802,1.181,1.1737,1.1755,1.1744,1.1652,1.1686,1.1665,1.1625,1.162,1.1577,1.1569,1.1537,1.1572,1.1602,1.1595,1.1602,1.1564,1.1695,1.1709,1.1721,1.1762,1.1779,1.1575,1.1574,1.1573,1.1572,0,1.1924,1.1931,1.1963,1.1927,1.192,1.1946,1.1878,1.188,1.1832,1.179,1.1813,1.1772,1.1755,1.1759,1.1712,1.1787,1.1765,1.171,1.1635,1.1749,1.1786,1.1802,1.1585,1.1583,1.1581,1.1579,0,0,1.2131,1.2055,1.2068,1.2051,1.2001,1.2005,1.2027,1.201,1.2014,1.199,1.2006,1.2005,1.1954,1.1941,1.189,1.1915,1.2015,1.1857,1.1855,1.1888,1.2096,1.2137,1.2156,1.1976,1.1979,1.1981,1.2099,0,1.225,1.2283,1.2219,1.2267,1.2273,1.2186,1.2205,1.2177,1.2139,1.2139,1.2097,1.2098,1.2031,1.2022,1.2042,1.1999,1.2056,1.1989,1.1991,1.1992,1.2002,1.2176,1.2219,1.2332,1.2113,1.2115,1.2117,0,1.2393,1.2376,1.2425,1.2373,1.2373,1.2392,1.2372,1.2373,1.2339,1.231,1.2296,1.2237,1.2255,1.2184,1.2208,1.2164,1.2161,1.214,1.2143,1.214,1.2061,1.2177,1.2366,1.2384,1.2139,1.2138,1.2136,0,1.2539,1.2529,1.2557,1.2545,1.2485,1.25,1.2476,1.2439,1.2433,1.2416,1.2412,1.2398,1.239,1.238,1.2319,1.2273,1.2351,1.2274,1.2328,1.233,1.2347,1.2347,1.2539,1.2347,1.2347,1.2346,1.2346,0,1.2678,1.2712,1.2622,1.264,1.2675,1.2602,1.2639,1.2606,1.2574,1.2584,1.2508,1.2519,1.2438,1.244,1.2393,1.242,1.2417,1.2395,1.2381,1.2401,1.2404,1.2397,1.2388,1.2351,1.235,1.2349,1.2348,0,1.2847,1.2789,1.2814,1.2755,1.2741,1.277,1.272,1.2734,1.2692,1.2705,1.2704,1.2638,1.2637,1.2576,1.2562,1.253,1.2577,1.255,1.2589,1.258,1.2637,1.2632,1.283,1.2853,1.2648,1.265,1.2651,0,1.294,1.2963,1.2908,1.2909,1.2888,1.2891,1.2885,1.2815,1.2812,1.2777,1.2795,1.2788,1.2778,1.2781,1.2732,1.2721,1.2692,1.2763,1.269,1.271,1.2693,1.2693,1.2695,1.2778,1.278,1.2783,1.2784,0,1.311,1.308,1.3074,1.306,1.3055,1.304,1.302,1.3025,1.2948,1.2949,1.2947,1.294,1.2926,1.292,1.29,1.2875,1.2818,1.2808,1.2819,1.2839,1.2861,1.285,1.263,1.2803,1.2801,1.28,1.2799,1.2798,1.3243,1.326,1.3224,1.3221,1.3199,1.3182,1.3192,1.3152,1.3149,1.3133,1.3092,1.3097,1.3063,1.3031,1.3012,1.3015,1.2979,1.2996,1.3001,1.3006,1.3017,1.2861,1.3011,1.301,1.301,1.3009,1.3009,0,1.3409,1.3382,1.338,1.3354,1.3352,1.3299,1.3274,1.3276,1.3281,1.3255,1.3248,1.3246,1.3241,1.3192,1.3181,1.3193,1.3166,1.3192,1.319,1.3185,1.3049,1.304,1.3214,1.3214,1.3214,1.3214,1.3214,1.3214,1.3495,1.3522,1.3488,1.3504,1.3476,1.348,1.3471,1.3456,1.3435,1.3436,1.3431,1.34,1.3365,1.3351,1.3343,1.3329,1.3329,1.3364,1.3341,1.3215,1.3195,1.3176,1.3167,1.3364,1.3365,1.3476,1.3477,1.3478]}]]